Theta_e
302 295 292 292 294 296 298 299 299 299 299 300 299 298 297 297 298 300 300 302 304 301 301 302 303 311 315 318 320 322 324 325 324 324 324 326 326 326 326 325 327 326 327 332 333 336 334 334 334 336 337 337 336 337 337 337 339 341 340 341 342 346 348 345 343 343 344 343 344 345 344 343 346 346 347 348 349 348 347 349 348 348 347 346 346 344
300 294 293 296 297 298 298 299 301 299 300 298 298 297 297 298 296 300 300 303 306 303 302 304 306 310 317 318 320 321 321 321 322 322 324 324 326 330 327 326 325 323 326 325 329 330 335 334 333 336 336 336 335 336 339 337 338 342 343 343 342 345 347 346 345 346 346 345 345 344 343 344 344 344 342 344 346 346 347 349 349 349 346 346 347 346
293 292 296 298 299 299 299 299 300 298 297 298 297 297 297 297 300 301 302 304 303 304 302 306 307 309 317 318 319 320 320 319 322 324 326 324 324 324 326 325 322 322 323 323 330 331 333 333 335 333 333 335 337 337 336 337 339 342 343 343 343 344 345 345 346 345 344 346 347 345 343 343 341 343 344 344 342 342 342 344 346 347 346 345 344 345
290 293 298 300 299 298 298 298 298 298 298 297 297 296 295 298 297 296 301 302 302 303 304 305 305 308 316 318 319 320 321 323 326 327 328 328 324 324 324 323 323 324 322 320 323 327 330 332 333 332 332 333 334 333 337 338 338 339 340 341 341 341 341 341 343 343 344 345 345 344 344 343 342 339 341 341 341 340 341 341 343 343 342 342 342 342
292 296 300 299 298 297 295 296 296 296 295 298 298 297 297 297 297 298 300 302 304 306 308 307 306 306 312 312 314 318 322 324 326 326 326 326 327 326 327 325 328 327 321 319 321 322 325 326 328 329 329 331 332 334 335 335 336 337 337 339 340 340 341 342 343 343 344 344 343 342 342 341 340 339 338 337 336 337 338 339 340 340 341 341 341 341
294 298 300 296 296 296 296 294 295 296 294 296 298 298 299 299 298 301 304 301 299 300 305 303 294 297 307 311 312 315 317 319 322 322 322 323 325 326 324 325 329 327 324 324 322 323 322 325 326 327 329 329 330 331 333 335 336 337 337 338 340 340 340 340 342 342 342 341 340 338 336 332 331 331 332 330 332 334 335 335 340 340 339 339 339 339
296 299 297 295 295 295 295 294 296 297 295 294 295 300 298 298 299 300 301 298 294 294 301 306 295 293 305 307 312 315 315 315 320 320 322 323 324 325 324 325 327 325 324 325 324 324 323 324 325 326 327 328 328 331 334 335 336 337 337 338 339 338 338 338 339 340 339 338 338 337 334 332 332 330 331 333 335 336 335 337 337 336 337 336 336 337
298 296 296 296 295 294 294 293 296 297 295 293 300 299 298 297 297 297 298 298 298 303 304 303 300 296 296 304 313 315 314 314 316 318 320 323 324 324 325 326 327 326 327 326 325 326 325 324 324 324 326 327 328 330 331 332 334 334 335 336 336 335 334 336 338 338 338 336 335 334 333 333 331 331 330 332 333 334 333 332 333 334 333 333 333 334
298 294 294 294 294 293 293 295 297 298 295 297 300 300 298 298 298 297 297 297 298 297 295 299 300 294 296 304 312 314 310 310 313 317 319 320 323 325 325 326 327 326 328 327 326 325 325 325 324 324 324 326 328 329 329 330 331 333 335 335 335 334 334 335 335 336 336 336 335 333 332 330 330 331 330 330 331 330 331 331 330 331 331 331 331 332
298 297 296 296 294 292 296 298 298 297 294 298 300 301 300 299 298 298 297 297 296 294 290 296 299 292 293 305 307 312 309 310 313 316 318 320 322 324 324 326 327 327 328 327 327 325 323 322 322 324 325 325 326 328 329 329 330 330 331 330 330 330 331 333 334 334 333 333 333 332 332 331 329 330 330 330 328 329 331 329 329 329 328 329 329 330
299 302 301 297 295 297 298 299 299 298 299 301 299 298 298 297 297 298 298 297 295 288 291 296 299 295 290 301 305 305 306 311 314 316 318 320 322 324 326 327 325 325 326 326 324 322 324 324 322 324 323 323 326 327 327 326 327 327 327 327 327 327 327 330 330 331 330 330 330 330 330 329 328 328 329 328 327 326 327 326 326 326 326 327 326 327
298 298 297 298 301 300 300 297 299 300 300 298 296 295 296 295 297 296 295 296 287 286 293 297 298 297 289 298 303 308 312 313 315 315 317 318 320 322 324 323 322 323 323 322 321 320 322 323 324 323 321 321 322 324 323 324 324 325 325 325 325 326 326 327 327 328 328 327 327 327 327 326 326 326 324 324 323 323 324 323 323 323 324 323 323 324
294 295 298 299 302 300 297 296 296 298 298 297 296 295 291 288 288 285 290 285 286 286 294 298 298 295 293 299 305 308 310 312 316 318 319 319 320 322 321 320 320 321 319 318 318 317 319 320 322 321 320 320 320 321 322 323 324 324 325 325 324 323 324 324 325 325 325 325 324 323 323 324 324 323 323 322 321 322 321 321 321 320 319 320 320 320
293 297 297 297 299 301 299 292 292 291 295 294 293 292 289 286 284 281 286 288 289 293 295 295 298 292 298 304 308 306 311 314 316 320 321 321 320 319 317 318 320 320 318 317 318 318 318 318 318 320 320 320 321 321 321 322 322 322 324 324 323 322 323 323 324 324 322 322 322 322 321 322 321 321 321 320 320 320 320 319 319 319 318 318 318 317
285 287 292 296 292 300 298 296 295 294 294 294 297 295 292 292 287 281 286 283 286 290 293 298 293 290 293 297 312 315 314 317 319 320 321 322 319 317 317 319 321 319 318 319 320 320 319 318 319 318 320 320 320 320 321 322 322 323 322 321 321 321 321 322 322 321 321 319 320 320 320 320 320 319 318 318 318 318 318 318 318 317 318 317 316 315
290 289 295 299 299 300 297 299 300 297 295 297 297 298 293 292 297 289 291 291 291 291 290 292 291 299 300 309 312 314 316 317 318 318 320 317 316 315 316 317 318 318 318 320 320 321 320 319 318 318 318 318 319 319 319 321 321 322 322 322 321 321 321 320 320 319 319 319 319 319 319 319 319 318 318 316 316 316 317 317 316 316 316 316 315 315
291 289 296 297 300 299 299 300 299 300 288 294 295 291 294 300 298 290 289 295 291 291 288 295 297 300 309 311 311 312 313 314 316 316 315 313 313 315 315 317 318 319 318 318 318 317 317 318 318 317 317 317 317 318 319 320 321 321 321 321 320 320 320 319 319 319 319 318 317 317 317 317 317 316 316 315 315 315 316 317 316 315 314 314 314 314
289 289 295 295 293 299 302 301 300 300 300 296 291 295 300 301 300 294 286 287 287 285 287 294 292 295 295 293 309 310 311 312 313 313 312 313 313 313 315 317 318 318 318 318 318 317 317 318 316 317 317 317 318 318 319 320 321 321 320 320 318 318 318 318 318 317 317 316 315 315 315 315 316 316 316 315 314 315 315 315 315 315 313 313 313 313
296 286 292 295 296 298 301 300 297 300 301 297 295 302 293 287 287 294 290 283 282 282 286 292 294 295 296 297 305 306 307 309 311 312 311 310 312 313 314 316 317 317 317 316 317 318 317 316 316 316 316 317 318 319 319 319 319 320 320 320 319 317 317 317 317 316 315 316 315 314 314 314 314 314 314 314 314 314 313 313 312 312 312 313 313 312
298 288 289 296 295 298 298 297 289 293 299 300 301 297 300 297 293 289 289 293 292 284 285 288 293 290 300 305 306 307 310 311 310 310 310 311 313 313 314 314 314 315 316 316 316 317 317 316 316 316 315 315 316 316 317 318 318 318 318 318 317 317 317 316 316 316 314 314 314 313 313 313 313 313 313 313 313 312 311 312 312 312 312 312 312 311
292 298 285 292 298 297 291 295 293 294 292 293 294 294 295 296 299 297 297 292 290 287 286 287 286 293 301 308 309 310 312 313 311 310 311 312 313 314 314 314 315 316 316 316 315 315 316 316 316 316 316 315 316 316 317 317 317 317 317 316 316 315 315 314 315 314 313 313 312 312 312 312 312 312 312 312 312 312 311 312 312 311 311 311 311 311
291 293 287 291 291 291 293 297 297 297 297 294 294 293 294 292 290 287 287 295 293 291 287 287 286 297 305 311 311 312 315 315 315 313 312 313 313 314 314 315 316 316 316 315 316 316 316 316 315 315 315 315 315 315 315 316 317 316 316 315 315 314 313 314 312 312 312 312 312 311 311 311 311 311 311 312 311 311 310 310 310 312 311 310 310 311
298 296 293 287 290 292 295 298 300 301 300 298 297 294 297 296 295 290 284 289 293 293 296 295 289 294 310 312 315 314 316 316 315 314 312 312 312 313 314 316 316 316 316 316 316 315 315 316 315 314 314 314 315 315 316 316 316 315 315 315 314 313 313 313 311 311 311 311 310 310 310 310 310 310 310 311 311 310 310 310 310 310 310 309 309 309
297 292 290 290 294 296 298 299 300 300 299 296 297 298 297 294 295 294 293 295 291 292 290 291 287 294 307 313 314 317 317 317 316 315 313 312 311 311 312 313 313 313 315 315 316 315 315 315 314 313 313 314 314 315 315 315 315 315 315 314 314 313 312 312 311 311 310 310 310 310 310 309 309 309 309 309 309 310 310 309 309 309 308 308 308 307
290 294 292 287 287 289 292 295 295 298 298 296 295 297 297 298 297 298 297 300 290 293 292 289 284 292 308 310 313 316 315 313 314 314 313 310 310 310 311 311 312 313 312 312 313 313 313 313 312 312 313 313 314 315 315 315 314 314 314 314 313 312 312 311 311 310 310 310 309 309 308 308 308 308 308 309 309 309 309 309 308 308 307 308 307 307
294 293 291 285 281 279 279 281 284 288 292 295 297 296 297 296 297 295 290 292 287 292 294 290 289 302 306 309 310 313 312 312 313 313 312 312 310 309 309 310 311 310 310 311 312 312 312 312 313 313 313 314 314 314 314 314 313 313 313 313 313 312 311 310 310 310 309 309 308 307 307 308 308 307 309 308 309 309 308 308 308 308 307 307 307 307
294 297 295 293 289 287 289 292 296 296 294 291 294 295 296 297 297 298 296 290 288 291 290 294 295 300 303 305 307 310 311 310 309 310 309 309 310 310 310 310 310 309 309 309 310 311 312 311 312 312 312 312 313 313 313 312 312 312 313 313 312 311 311 310 310 309 308 308 308 307 307 307 308 308 308 308 308 308 308 307 307 307 306 307 306 306
296 292 294 296 296 295 296 295 297 296 293 294 294 294 296 296 297 296 291 289 296 293 288 296 297 298 302 306 308 309 310 310 309 309 309 309 309 309 308 308 307 308 309 309 309 309 308 309 310 310 310 310 311 312 313 313 312 312 311 310 311 310 310 310 309 308 308 307 306 306 306 307 308 307 307 307 307 307 307 306 306 306 306 306 306 305
294 289 295 296 296 298 299 296 297 296 295 295 295 296 295 296 296 294 295 296 298 291 289 298 300 297 300 307 309 310 311 310 309 310 311 310 308 307 306 305 305 305 306 307 307 307 308 308 309 309 309 310 311 312 313 312 311 311 311 311 310 309 309 309 308 307 307 307 306 306 306 307 306 306 306 305 305 305 305 305 306 305 305 306 306 306
296 291 295 295 295 297 298 298 299 295 296 295 295 295 296 296 296 297 297 297 299 297 297 300 300 298 301 308 311 312 314 312 311 312 312 309 307 306 305 304 304 304 305 305 306 307 310 308 308 308 309 310 310 311 311 310 310 310 310 310 309 309 309 309 308 307 306 306 306 306 305 305 305 305 305 304 304 304 304 305 305 305 305 305 305 305
296 291 295 296 294 294 298 298 299 298 297 294 295 296 296 296 297 297 298 298 299 299 300 300 299 299 310 315 313 315 314 313 310 308 308 309 308 306 305 304 305 305 306 306 305 306 307 307 307 308 309 310 310 310 310 310 310 310 309 309 308 308 308 308 307 307 307 305 305 304 304 304 304 304 303 304 304 304 304 304 304 304 304 304 304 305
297 293 296 295 289 291 296 296 297 299 298 295 294 296 297 297 295 297 294 299 298 297 299 298 297 297 310 314 314 313 311 309 307 307 308 307 307 307 305 305 305 306 306 305 305 306 306 306 307 307 308 309 310 310 310 309 309 309 308 308 307 308 308 308 307 306 306 304 303 303 303 303 303 302 302 303 302 302 303 303 303 303 304 304 304 304
294 294 290 291 287 288 297 297 297 298 297 292 292 297 298 298 298 299 301 303 302 301 296 293 295 302 309 312 310 310 309 308 308 308 308 308 308 307 306 305 306 306 306 305 305 306 306 307 307 308 308 310 310 308 309 310 309 308 307 307 307 308 307 307 306 305 303 302 302 301 301 301 301 300 300 300 301 302 303 303 303 303 303 303 304 304
295 296 291 295 286 288 295 297 297 292 285 287 301 304 303 299 300 299 299 301 303 302 300 303 303 307 312 311 309 308 308 308 309 311 312 309 307 307 306 306 306 307 307 307 307 306 306 307 308 308 309 309 309 309 310 310 308 307 307 307 307 306 306 306 304 303 301 301 301 300 299 300 300 300 300 300 301 302 302 302 302 303 303 304 304 303
295 294 292 295 289 288 294 294 288 283 287 299 303 304 303 304 302 300 302 304 303 304 307 305 309 311 311 312 312 312 311 312 312 312 312 312 311 308 305 305 305 306 305 305 305 306 307 308 309 309 308 308 308 309 308 307 307 307 305 305 304 305 304 302 301 300 301 301 301 301 301 301 301 301 301 301 301 301 301 302 302 302 302 303 303 303
293 292 293 291 291 292 290 288 280 284 297 301 302 302 304 302 303 302 301 303 305 306 306 303 306 310 312 312 313 313 312 312 311 311 311 312 313 311 308 307 306 306 305 305 306 307 307 308 308 308 307 307 307 307 306 305 306 305 304 305 304 304 303 302 301 301 302 301 301 301 301 301 301 301 300 300 301 300 301 302 302 302 302 302 303 303
298 296 294 290 295 287 288 288 287 294 296 300 298 301 300 301 300 297 290 296 306 307 306 305 309 311 312 311 311 311 311 310 307 308 312 312 312 313 310 308 307 307 308 309 308 308 309 309 309 309 307 306 306 305 305 305 305 304 304 304 304 303 302 301 301 301 301 301 301 301 301 301 301 301 301 301 300 300 300 301 301 302 302 301 302 302
300 294 295 291 288 292 288 287 287 287 283 291 301 309 308 310 309 309 303 299 308 308 308 308 308 310 310 310 309 309 309 304 300 302 309 312 313 313 312 311 310 309 310 309 310 309 309 308 308 308 307 306 306 306 305 305 304 303 303 303 303 301 301 301 301 301 301 301 301 301 301 301 301 301 301 301 300 300 301 302 302 302 302 301 300 300
301 300 297 291 290 289 288 286 285 283 287 297 303 307 309 308 310 310 300 293 307 309 308 309 309 310 310 308 307 307 304 299 299 304 309 312 313 314 313 311 310 309 309 311 310 307 307 307 307 308 308 307 305 305 305 304 303 303 302 302 302 301 300 301 301 301 301 301 301 302 301 301 301 301 301 301 301 302 301 301 302 302 302 301 301 301
297 294 294 291 288 289 288 286 285 289 288 300 306 306 307 308 308 306 288 290 309 309 309 309 309 310 310 309 308 306 304 300 305 307 311 313 314 314 313 309 308 309 309 310 308 308 307 307 306 306 306 305 304 304 304 304 303 303 302 301 302 301 300 301 301 302 302 302 302 302 302 303 302 302 301 301 302 302 302 302 303 302 302 302 301 301
290 291 292 288 289 289 287 288 290 290 298 304 305 307 307 308 306 291 286 295 309 310 310 311 311 312 311 309 307 304 308 310 311 314 312 313 312 311 311 311 310 310 309 307 305 303 305 306 306 305 305 304 304 304 304 303 302 302 302 302 301 300 301 302 302 302 302 302 302 302 301 302 302 302 302 302 302 302 302 303 303 303 302 302 302 302
290 291 291 291 289 289 289 287 288 291 303 306 307 307 308 302 289 289 303 304 310 310 311 312 312 313 312 310 309 310 312 311 313 313 311 311 310 308 310 310 310 310 308 306 304 304 305 305 306 305 305 304 303 303 303 303 301 301 301 301 301 302 302 302 302 302 302 301 301 302 302 302 303 304 304 304 304 303 302 303 303 303 303 303 302 302
292 288 288 289 291 292 290 287 286 284 293 307 307 304 305 295 294 304 308 309 310 312 311 312 313 313 313 310 311 311 310 310 311 311 311 309 306 306 308 310 308 306 304 303 303 304 305 305 305 304 304 303 303 303 303 302 301 301 301 301 302 302 302 302 302 302 301 301 301 302 302 303 303 304 304 304 304 303 303 303 303 303 303 303 302 301
301 289 289 290 294 288 287 285 286 294 304 308 306 297 304 306 307 310 310 307 311 312 311 311 313 313 313 311 309 309 309 309 311 310 309 307 306 307 309 308 306 304 303 303 304 305 306 305 304 304 304 303 303 303 302 302 301 301 301 301 302 302 302 302 302 302 301 301 301 302 302 303 303 304 305 305 304 303 303 303 302 302 302 302 301 300
301 297 298 291 298 293 290 294 303 303 307 309 308 305 307 308 308 309 311 310 310 311 313 312 312 313 313 312 311 309 307 308 309 308 306 306 306 307 307 306 304 303 302 302 302 304 305 304 303 302 302 302 303 303 303 303 302 301 301 302 303 302 301 301 301 301 301 301 301 302 302 303 303 304 304 305 304 303 302 303 303 301 302 302 301 300
302 304 306 302 299 303 303 304 306 304 305 307 306 306 305 307 308 309 311 311 312 312 313 312 313 313 313 312 310 309 308 308 308 308 308 307 307 307 306 304 303 302 302 302 303 304 304 304 302 301 301 302 303 303 303 303 303 301 301 302 301 301 302 301 301 301 301 301 302 301 302 302 303 303 303 303 303 303 302 302 301 301 301 301 300 300
303 303 302 298 303 296 291 304 304 306 306 306 306 307 307 307 308 309 311 312 312 313 313 314 313 313 313 311 310 309 308 308 308 308 308 307 307 306 304 303 302 302 302 301 303 303 303 302 301 300 301 301 302 303 303 303 303 302 301 301 301 301 301 302 301 300 301 301 301 302 302 302 302 301 302 303 302 302 303 302 302 302 300 301 300 300
299 305 301 301 301 296 297 303 305 305 306 307 307 306 307 307 307 308 311 312 313 314 314 314 314 313 312 310 310 309 308 309 308 307 306 306 305 305 304 303 302 302 302 302 302 304 303 301 300 300 300 300 302 303 303 303 302 301 301 302 302 302 302 301 301 301 301 301 301 302 303 302 294 299 301 302 303 301 301 302 302 300 300 300 300 300
303 302 295 302 299 302 303 303 303 305 305 305 306 307 309 309 308 308 309 310 311 311 312 313 314 312 311 311 311 309 308 309 309 307 305 304 305 304 303 303 302 301 300 300 301 301 300 299 299 300 301 301 303 303 303 302 302 301 302 302 302 302 302 301 300 301 302 302 301 301 301 300 302 302 301 300 301 302 302 302 302 302 301 301 301 300
301 298 302 298 295 295 297 302 304 297 296 305 306 307 308 308 308 309 309 309 310 310 311 311 310 311 311 311 310 309 308 307 308 307 305 304 304 304 303 302 302 300 300 301 301 302 301 300 299 300 300 301 302 302 302 302 301 301 302 302 302 302 302 301 301 301 301 301 301 301 301 302 301 301 300 301 300 300 299 291 290 297 303 301 291 283
301 304 301 296 295 294 302 303 307 307 306 307 309 309 309 309 308 308 308 309 310 311 311 310 309 309 309 310 311 309 309 308 307 308 306 305 304 304 303 302 301 300 301 301 301 300 301 299 299 300 300 301 301 301 301 301 300 301 301 302 302 302 302 301 301 300 300 301 300 299 301 301 301 301 301 301 301 301 300 300 300 285 280 288 291 290
Wind_Speed
13 14 16 18 15 17 16 16 16 1 6 9 14 13 9 11 12 8 7 7 7 12 6 8 8 14 9 8 9 10 10 11 12 12 9 11 12 14 11 10 9 7 1 5 4 7 9 8 6 5 10 8 13 9 11 8 10 10 10 10 9 7 7 5 6 5 4 4 5 4 4 4 4 4 4 4 4 4 4 4 4 4 5 4 2 2
14 14 16 17 15 18 19 16 11 5 9 11 12 13 9 10 11 10 9 6 7 8 8 8 11 12 10 8 9 10 10 13 14 12 9 8 6 3 13 14 13 11 4 4 6 2 9 10 7 5 7 8 11 10 10 10 11 8 9 9 8 6 6 5 4 4 4 3 2 3 4 4 3 4 4 5 5 5 4 4 5 5 4 3 2 1
15 18 15 17 14 15 16 17 12 10 8 9 9 10 10 10 9 10 10 6 8 6 9 11 12 11 9 8 8 9 9 9 11 10 10 10 8 10 11 12 12 13 13 8 6 6 6 10 10 9 7 7 10 10 9 10 11 10 9 8 8 7 6 6 5 4 5 5 4 4 4 4 5 5 5 5 7 6 5 5 4 5 4 4 3 3
14 14 16 16 15 16 15 14 13 10 8 8 10 10 11 11 10 8 8 9 7 7 10 12 12 10 9 7 8 7 7 8 5 8 11 11 11 10 11 10 9 11 12 7 6 6 6 9 10 10 10 9 10 9 8 9 10 8 8 9 9 8 7 7 7 6 6 7 8 7 5 6 6 7 6 6 7 6 5 5 4 4 4 4 3 4
14 11 14 15 14 15 17 17 16 12 10 11 11 10 10 10 9 3 13 10 9 6 13 13 10 9 8 9 7 7 5 6 8 9 9 10 10 9 11 10 10 12 14 12 10 6 9 8 7 10 10 11 10 8 8 10 8 7 9 9 9 8 8 7 6 6 6 7 7 7 8 8 7 7 6 5 5 4 4 4 4 5 5 5 5 5
14 12 14 17 17 16 16 16 18 14 11 10 11 10 9 10 10 8 12 14 9 8 12 15 9 8 10 11 10 9 8 10 9 10 10 11 12 12 11 11 10 13 12 15 14 11 9 5 6 8 10 11 11 10 9 10 9 10 10 10 9 8 8 7 7 6 5 5 5 6 6 6 5 5 4 5 4 4 4 4 4 6 6 6 5 5
11 12 16 17 17 18 18 15 17 16 11 10 12 8 3 6 8 9 9 12 12 10 14 10 11 6 9 12 12 11 12 12 10 11 13 13 12 13 11 12 13 15 15 13 14 13 12 7 7 7 9 11 12 10 10 9 10 10 9 9 9 9 8 7 7 7 5 5 6 6 6 4 4 5 5 4 3 4 5 4 5 6 6 6 5 5
11 17 16 17 18 17 16 15 17 18 12 9 11 15 6 5 7 7 7 11 5 8 9 9 11 7 8 10 13 13 13 12 12 13 14 13 14 14 12 13 14 15 16 15 15 14 13 9 8 9 9 9 10 11 11 10 8 10 10 9 10 9 8 7 7 6 5 6 5 5 6 5 5 6 6 5 5 5 4 4 4 4 5 5 5 5
14 16 18 19 18 15 16 14 15 18 13 6 11 13 10 6 6 6 6 8 1 6 10 10 11 9 9 10 11 14 12 12 14 15 15 15 15 15 15 14 15 15 17 18 16 16 15 12 9 11 12 12 11 11 11 10 10 9 9 10 10 10 9 8 8 7 7 6 5 6 6 6 6 6 5 4 4 4 3 3 4 4 4 4 5 6
10 15 16 16 15 14 13 15 13 18 14 5 9 11 8 7 5 7 8 8 5 7 9 11 12 11 8 12 11 14 14 15 16 18 17 16 16 14 14 12 13 12 13 15 16 15 14 11 10 10 13 12 10 10 11 10 10 10 10 10 10 10 8 7 7 7 7 6 5 5 6 7 6 4 4 3 2 2 1 3 2 3 3 3 4 5
10 12 14 12 14 12 13 11 14 17 14 8 9 11 8 7 7 5 6 7 6 8 12 9 12 12 9 13 12 14 15 15 14 13 13 15 15 15 14 12 11 11 13 14 13 12 13 13 15 10 11 12 11 9 9 9 9 9 10 10 11 10 8 8 8 7 7 6 6 5 5 4 4 4 2 2 3 3 3 3 3 3 4 4 4 4
12 15 13 11 12 10 10 11 14 15 13 10 10 12 9 9 5 6 7 6 7 9 12 10 12 14 13 10 12 13 13 17 16 17 19 19 18 15 12 11 10 10 13 15 14 13 15 14 14 13 12 10 10 9 8 8 9 9 10 10 10 9 9 8 7 7 7 6 6 6 6 6 5 5 4 4 3 3 3 3 2 2 2 3 3 4
13 13 11 12 8 12 14 11 11 15 12 13 12 13 13 9 7 9 10 11 10 8 9 12 12 10 13 4 10 15 14 15 16 14 18 20 18 15 13 13 11 12 14 14 15 14 13 14 12 12 11 11 10 8 8 9 9 10 10 10 10 10 9 8 8 8 8 7 7 7 7 7 6 6 6 5 4 3 3 3 3 3 3 3 4 5
10 13 14 11 12 13 15 14 13 13 14 15 15 14 14 12 11 10 11 6 8 5 7 8 11 11 6 4 4 14 11 8 12 13 14 16 15 15 16 14 14 13 13 12 13 15 15 15 15 13 10 12 11 10 9 9 10 9 9 10 11 11 9 9 8 9 9 9 8 8 7 7 7 6 6 5 5 4 3 3 3 3 3 3 4 5
14 13 13 17 11 15 16 14 14 11 15 15 13 13 12 10 8 8 9 10 10 8 10 8 8 8 11 6 4 2 6 7 7 11 12 12 17 17 14 15 15 15 15 15 15 17 16 16 15 12 11 12 11 11 10 9 10 10 10 10 11 11 10 9 9 9 9 9 8 8 7 7 6 6 5 5 5 4 4 4 4 4 4 4 5 5
15 6 12 15 7 17 16 14 12 13 12 13 12 11 12 13 6 9 2 4 10 9 9 11 7 0 1 2 1 2 3 7 9 12 14 17 16 17 15 16 15 15 15 14 15 15 15 14 15 13 12 12 11 10 9 9 8 9 10 11 12 11 10 10 10 9 9 9 8 8 8 7 7 6 6 5 5 5 5 5 5 5 5 5 5 6
13 8 18 15 7 17 15 13 12 14 12 13 13 14 13 9 6 3 2 7 4 4 7 7 7 5 6 4 2 5 7 10 11 13 16 16 17 17 15 16 16 16 15 15 14 14 15 12 11 10 11 11 10 9 9 9 9 11 11 11 12 11 9 9 9 9 8 8 8 8 8 8 8 7 7 6 6 6 6 6 6 6 6 7 6 6
10 10 16 14 14 14 15 11 11 15 9 9 11 11 6 2 3 6 6 3 6 7 4 9 11 10 9 6 6 8 11 12 13 15 15 17 17 17 16 17 16 17 15 14 12 13 13 12 12 11 10 11 12 12 12 12 11 10 11 13 13 11 10 9 8 8 8 8 8 8 8 8 7 7 7 7 6 6 6 6 6 6 7 7 7 7
7 10 12 13 13 13 14 13 13 14 16 9 11 8 9 9 8 8 4 9 11 9 5 9 12 9 12 7 10 13 16 16 16 16 17 17 18 18 18 18 17 17 15 14 15 15 12 12 13 13 12 12 12 12 12 11 12 12 12 13 12 12 10 9 7 8 8 8 7 7 8 8 8 8 7 7 7 7 7 8 7 7 7 7 8 8
7 7 9 12 14 14 12 13 14 14 12 8 8 13 12 7 9 9 8 4 6 7 6 7 11 7 10 9 16 17 19 20 18 18 19 20 19 18 17 18 18 18 17 16 16 14 13 14 11 11 12 12 12 13 12 12 11 13 13 13 12 11 11 9 9 8 9 9 8 8 8 9 8 8 8 8 7 7 8 8 7 7 8 8 7 8
6 3 9 12 14 16 13 13 14 14 14 13 11 12 11 9 3 6 8 11 7 6 7 6 6 7 7 11 16 18 19 20 22 21 19 19 19 18 18 18 18 18 17 16 16 16 17 15 14 12 11 11 11 12 11 11 11 12 12 13 12 12 11 10 9 9 9 8 9 10 9 9 9 9 8 9 9 8 8 8 8 8 7 7 8 7
5 7 9 13 11 13 11 12 13 15 15 13 12 11 12 12 9 9 8 8 8 6 5 6 5 6 7 8 14 16 16 18 19 18 17 19 19 18 17 19 19 17 17 17 16 16 15 15 15 14 12 11 12 12 12 11 10 12 12 11 11 10 9 9 9 9 9 9 9 10 10 10 9 9 8 9 10 10 10 9 9 8 8 8 7 7
5 8 8 11 11 11 10 15 15 12 14 15 13 13 12 11 10 10 9 8 7 7 3 2 2 4 2 1 3 10 11 14 16 17 16 17 18 18 17 18 17 17 18 16 17 17 16 15 15 15 15 13 12 12 12 11 11 11 12 11 10 9 8 9 9 9 9 9 10 10 10 10 10 10 10 10 9 10 9 8 8 7 7 7 7 8
2 7 8 10 10 11 4 4 10 11 12 15 15 13 13 13 14 11 9 5 8 8 7 3 3 3 4 2 4 5 12 12 13 15 17 16 14 16 18 18 19 17 17 16 11 15 16 15 15 14 15 13 13 12 12 11 11 11 11 11 10 10 10 9 9 9 9 10 10 10 10 10 10 10 9 10 9 9 8 7 7 7 8 8 7 7
6 8 9 10 9 9 9 9 10 13 12 12 12 13 13 12 13 12 8 2 6 12 12 9 9 4 5 3 6 7 11 14 16 14 17 16 15 16 17 17 17 18 17 17 17 17 17 17 16 15 14 13 13 12 12 12 12 12 11 9 9 9 9 9 8 9 9 10 10 10 9 9 9 9 10 9 8 9 8 8 8 7 8 7 8 7
5 8 9 11 13 13 14 15 15 15 15 10 12 14 16 15 15 12 9 7 7 6 12 9 5 6 4 3 11 12 11 13 15 13 15 15 16 16 15 16 17 17 17 18 17 18 18 17 15 15 15 13 13 12 12 12 12 12 11 10 9 9 9 9 8 9 9 9 9 9 9 9 9 10 10 8 8 8 8 7 7 7 7 7 7 7
4 8 10 9 10 9 8 7 7 10 11 13 14 15 16 16 15 13 8 9 9 5 8 9 7 7 6 9 13 15 13 15 15 16 16 16 16 15 16 13 12 15 17 18 17 15 15 16 16 14 14 13 13 12 12 12 12 12 11 10 9 9 9 9 9 9 9 9 9 9 9 9 8 7 8 8 8 7 7 7 7 7 7 7 7 8
6 7 13 4 2 1 4 7 7 14 15 16 14 15 14 15 16 15 11 10 8 7 8 9 9 8 8 12 14 16 15 16 16 16 16 14 16 16 16 16 16 17 17 17 17 18 17 15 15 15 14 13 12 12 11 11 12 12 11 10 9 9 8 8 9 9 9 9 9 9 9 8 8 8 8 7 7 7 7 7 7 7 7 7 8 8
8 6 9 8 2 3 2 4 6 10 14 15 16 15 17 17 17 17 14 13 9 8 4 8 11 12 11 15 17 19 21 22 20 20 19 19 16 15 16 18 18 18 17 18 17 16 17 16 15 14 14 13 13 13 13 12 12 11 10 9 9 9 9 9 9 10 10 10 9 9 8 8 7 7 8 8 8 8 7 7 7 7 7 7 8 7
6 6 11 10 5 4 4 3 5 10 10 13 17 17 16 17 18 17 16 15 11 8 6 4 9 12 9 14 16 15 14 15 14 15 16 19 19 18 18 19 18 18 18 17 16 17 17 16 16 15 15 14 14 13 12 12 12 11 10 10 9 9 9 9 9 9 10 10 9 9 9 8 8 8 8 8 8 8 7 7 7 7 8 8 8 8
8 6 7 9 7 7 4 3 4 7 9 13 15 16 17 17 17 18 16 16 15 13 6 5 6 7 5 4 12 13 12 13 14 17 19 19 20 19 18 18 18 19 18 18 16 16 16 17 16 16 16 16 14 13 12 12 12 11 10 9 10 10 9 9 10 10 10 10 10 9 9 8 8 8 9 8 8 7 8 8 7 7 8 8 8 8
9 3 6 7 5 8 6 4 4 5 8 13 15 15 14 14 16 16 14 14 12 11 12 10 9 9 7 9 13 15 15 18 19 20 19 19 21 20 19 19 21 20 19 17 17 17 17 18 18 18 17 15 14 13 12 12 12 11 11 10 10 9 9 10 10 11 11 11 10 10 9 9 9 9 9 8 8 8 7 7 8 8 8 8 9 8
10 5 6 6 6 6 7 5 5 6 7 8 12 14 15 13 13 8 7 6 12 12 11 9 10 8 10 13 15 16 18 18 17 18 19 20 21 21 22 22 21 20 20 20 19 19 18 18 18 17 16 15 12 12 12 12 11 11 10 10 9 9 10 11 11 11 11 11 10 10 8 9 9 8 8 8 8 7 8 8 8 8 8 8 8 8
13 8 6 8 6 6 8 5 5 6 8 5 3 6 5 12 12 11 11 11 11 12 7 7 6 5 14 14 16 17 19 22 21 21 18 17 20 20 20 20 21 22 21 21 21 20 18 17 16 15 15 13 13 12 12 11 11 11 11 10 10 10 11 11 11 11 12 11 10 9 9 9 9 8 9 8 8 9 9 9 9 8 7 7 7 8
12 10 5 7 6 6 8 5 4 6 5 5 1 2 3 4 2 9 5 7 11 10 3 4 6 10 14 14 15 15 13 11 13 17 19 19 20 19 20 20 21 22 21 21 20 18 18 18 18 17 15 14 13 13 12 12 11 11 11 11 12 12 13 13 13 12 12 11 10 10 9 10 9 9 9 9 9 9 9 8 8 8 7 7 7 7
8 9 4 5 5 2 5 6 7 5 5 2 2 2 4 2 2 2 6 8 9 12 11 11 8 7 8 8 9 10 12 13 12 13 16 18 20 20 19 18 19 19 19 18 20 19 19 18 18 17 15 13 13 12 12 12 12 12 13 12 13 13 13 13 13 12 11 11 10 10 9 9 9 9 9 9 9 9 9 9 8 8 7 7 7 7
12 9 7 5 3 4 7 9 4 5 2 4 2 6 9 6 10 10 7 11 14 13 13 10 8 9 9 9 11 11 12 12 11 10 15 19 20 20 21 19 20 18 19 20 19 18 17 16 16 16 15 14 13 13 13 13 13 13 14 13 12 13 13 13 12 12 11 11 10 10 9 9 10 10 10 9 9 9 9 8 8 8 7 8 7 7
11 11 8 6 4 4 7 8 7 4 6 5 5 5 11 3 5 2 3 4 10 13 13 11 12 12 13 12 12 13 15 13 11 13 18 21 22 21 19 20 21 20 19 19 18 17 17 16 15 16 16 15 14 13 13 13 14 14 14 14 13 13 13 12 12 11 11 10 10 10 10 10 10 10 9 9 9 9 8 7 7 7 7 8 7 7
7 9 9 10 4 6 6 9 9 9 5 1 7 7 9 2 4 3 3 7 10 15 15 13 14 15 16 17 16 16 15 12 13 14 18 22 20 20 20 19 19 19 19 22 21 19 17 16 17 17 16 15 15 14 14 15 15 15 15 14 13 13 13 12 12 11 11 11 10 10 9 9 9 9 9 9 8 7 8 8 7 7 6 7 7 7
10 7 5 8 7 7 7 7 9 6 3 4 6 6 10 3 4 4 5 5 8 14 15 14 15 17 16 18 19 18 15 11 11 13 20 22 20 20 19 21 20 21 21 20 18 19 19 19 18 17 16 16 16 16 16 16 14 15 14 14 13 13 12 12 11 11 11 10 10 9 9 8 9 9 8 8 8 7 7 7 7 7 7 7 7 7
8 8 7 10 9 8 10 7 5 5 3 3 5 9 9 6 4 5 7 2 5 11 13 14 16 17 18 18 17 15 14 2 5 13 21 21 21 20 18 20 21 20 21 19 18 17 16 17 16 16 16 15 16 16 16 15 15 15 14 14 13 13 12 12 11 11 11 10 10 10 10 8 8 8 8 7 7 7 6 6 6 6 6 7 7 7
8 5 7 8 9 10 9 9 8 3 4 6 6 9 8 6 5 7 2 2 2 9 9 10 11 14 16 17 13 7 5 5 7 18 22 21 19 18 20 21 22 21 20 21 21 18 16 16 16 16 16 16 17 16 15 15 15 15 14 13 13 13 12 12 11 11 10 10 10 9 9 8 8 7 6 5 6 6 6 6 6 5 5 5 6 7
8 7 9 10 6 6 7 10 8 11 3 10 13 6 1 3 0 3 2 2 1 7 9 8 8 10 12 12 10 6 7 8 12 18 21 21 20 19 21 22 22 22 19 19 18 18 18 17 17 17 17 16 16 15 15 16 16 15 14 14 14 13 12 12 11 11 11 10 10 9 9 8 7 6 5 5 5 6 6 5 5 5 5 5 5 6
3 7 6 7 8 7 7 8 5 1 6 13 11 2 8 2 4 2 1 3 2 6 8 8 8 11 12 12 12 10 9 12 16 19 20 20 20 21 22 22 21 19 20 19 19 19 18 18 17 17 17 16 15 15 15 16 16 15 14 16 13 13 12 12 11 11 10 10 10 9 8 7 6 6 5 5 5 5 5 4 4 5 5 5 5 5
4 3 3 3 7 6 3 1 5 2 5 8 3 4 5 3 2 2 3 3 5 5 6 6 10 12 13 12 12 12 12 14 18 20 20 20 20 22 23 23 21 21 20 19 18 18 18 18 19 17 17 15 17 15 15 14 15 17 16 14 13 13 13 12 11 11 10 10 9 8 8 6 6 5 5 4 3 4 4 4 3 4 4 5 5 5
2 2 1 4 1 3 2 1 1 1 4 5 2 4 3 2 1 2 1 2 3 4 6 6 10 12 12 13 13 13 13 16 19 19 20 21 21 22 21 19 19 19 19 19 19 19 18 19 19 19 18 17 17 16 15 14 15 17 15 14 14 13 13 12 12 11 10 10 9 8 8 7 6 6 5 4 4 4 4 3 4 4 4 4 5 5
2 2 3 3 3 3 4 5 2 3 2 5 5 2 1 1 1 1 1 1 2 4 5 5 9 11 12 14 13 13 15 17 18 18 19 20 21 22 21 21 20 19 19 19 20 20 19 20 18 19 19 19 17 15 15 15 14 15 15 14 14 13 13 12 11 11 10 9 8 7 7 7 6 6 4 4 3 3 3 3 3 3 4 4 4 4
5 3 3 3 2 5 1 3 2 1 1 2 5 5 4 3 3 1 0 1 2 4 4 7 9 11 12 12 13 14 17 18 18 18 18 18 19 20 20 21 21 19 17 18 19 20 19 19 19 20 19 18 16 15 15 15 15 16 15 14 14 13 12 11 11 10 10 9 8 7 6 6 3 1 5 3 3 4 4 3 3 5 5 5 5 4
5 4 2 4 5 2 2 2 2 2 4 6 8 7 2 2 3 3 2 3 5 7 7 8 9 11 12 12 14 15 17 17 17 18 18 18 20 18 19 20 20 19 18 18 18 19 18 17 18 19 19 17 15 15 15 15 15 16 16 14 14 13 12 11 11 9 10 8 7 6 6 7 6 4 5 5 4 4 4 4 3 4 6 6 6 6
4 6 3 2 4 4 3 3 5 3 2 6 8 9 9 4 2 3 4 5 6 8 9 11 10 11 11 12 14 16 17 15 17 18 19 19 19 19 20 20 18 18 18 17 15 15 15 18 20 19 18 15 14 14 15 15 16 16 15 14 13 13 11 11 10 10 9 8 7 7 6 6 5 5 5 4 5 6 6 6 6 7 5 6 6 5
5 1 3 4 4 2 5 3 1 4 2 5 3 4 7 6 5 6 6 7 7 8 9 12 12 12 12 13 13 15 16 17 18 18 18 18 18 18 19 20 20 19 18 19 20 19 18 17 18 18 17 15 15 16 15 15 16 15 14 13 13 12 12 11 9 9 8 7 7 7 6 6 6 5 4 4 4 4 6 6 5 3 4 6 4 2
Wind_Direction
171 192 193 201 198 195 195 199 206 173 231 186 191 201 202 197 187 143 108 117 184 187 188 172 180 128 143 153 153 159 158 168 161 154 159 149 149 148 139 139 118 104 156 92 50 125 111 136 108 141 141 145 132 160 126 144 129 136 135 141 140 145 146 144 137 132 126 127 122 123 133 123 119 99 103 95 91 87 86 81 84 76 77 89 66 33
188 205 204 200 198 191 194 197 200 175 206 188 189 200 200 200 190 159 136 151 165 219 150 181 158 138 130 156 160 160 168 168 175 164 158 161 142 136 137 136 127 145 112 81 142 98 141 128 148 142 117 140 131 131 131 136 130 138 130 129 127 123 118 113 102 101 98 88 95 124 113 105 98 100 91 95 89 81 75 82 81 83 80 68 70 77
198 209 197 196 198 187 190 196 187 188 186 197 202 194 204 198 110 116 127 153 168 214 144 161 143 124 137 153 164 171 173 153 195 158 164 151 156 153 141 136 141 139 128 173 150 152 134 131 132 120 120 84 105 106 114 115 114 119 119 116 116 113 110 109 104 112 108 105 97 99 102 113 106 75 80 89 87 78 73 67 74 76 82 74 59 28
194 207 196 189 196 187 180 185 187 196 207 203 206 199 206 188 169 149 140 155 170 211 157 156 148 143 120 137 167 177 148 138 128 152 165 159 159 151 133 147 145 134 117 84 342 112 115 97 95 90 88 99 87 94 107 106 107 107 108 110 106 105 110 109 108 110 103 97 97 97 91 83 82 89 77 83 80 79 76 66 50 64 58 52 43 30
194 180 191 173 176 179 182 191 197 200 200 209 214 208 202 180 186 272 148 149 144 134 155 150 145 145 162 150 151 181 163 153 160 140 145 165 159 146 135 147 149 134 133 141 112 39 27 45 64 77 86 87 92 84 89 92 94 91 93 97 97 93 87 90 96 100 108 110 108 107 97 89 96 99 91 85 87 89 84 84 69 59 46 36 30 26
195 178 161 175 183 190 190 189 198 195 198 192 212 213 212 180 161 106 139 144 166 156 177 174 174 188 172 175 161 153 181 187 174 172 165 169 166 152 147 156 141 122 137 132 131 120 107 102 64 76 85 92 89 91 92 97 102 105 105 103 98 93 91 90 85 86 92 108 115 118 111 107 105 103 91 80 77 91 83 71 65 60 52 47 27 16
179 155 172 181 185 190 195 200 194 199 203 193 187 208 85 152 156 148 166 181 192 193 173 212 221 169 174 179 171 162 178 177 184 189 180 174 172 162 156 158 147 134 140 136 125 122 119 107 104 99 92 91 94 94 92 96 95 88 84 84 83 78 74 76 79 86 91 87 87 87 91 89 100 105 90 84 68 74 85 73 66 66 53 41 42 34
171 168 181 185 184 189 194 202 193 199 206 206 155 184 159 148 160 167 190 200 173 56 132 199 222 168 186 183 171 170 168 170 188 193 189 183 179 168 167 168 157 145 145 139 137 134 123 122 124 106 96 91 92 93 92 87 88 91 93 88 84 81 69 63 76 80 82 97 93 97 94 90 81 84 97 93 81 69 67 68 60 67 60 47 39 27
166 170 178 181 187 190 200 199 185 197 211 175 148 176 182 175 182 178 198 200 206 202 181 189 203 223 190 161 167 172 165 175 193 196 196 190 185 175 178 180 159 155 148 141 142 138 135 132 116 108 102 98 98 99 100 99 94 94 91 88 86 87 86 82 76 73 71 70 91 106 111 114 111 113 112 106 100 91 84 86 70 57 52 48 36 25
186 183 177 182 190 196 192 197 180 190 207 150 162 176 184 189 196 208 206 209 177 217 218 184 187 218 187 155 169 180 187 182 197 201 197 192 185 178 180 171 151 147 137 135 134 128 119 101 95 101 106 106 105 104 106 102 98 95 92 86 84 81 80 79 79 77 77 81 85 89 106 116 122 129 126 127 126 145 150 75 56 55 44 25 24 19
164 180 177 193 196 195 193 188 179 188 213 120 185 177 178 185 195 196 234 228 186 221 224 190 188 214 203 175 183 185 197 188 189 195 192 189 188 178 177 161 148 143 129 120 112 108 113 118 115 107 106 114 113 101 95 91 88 88 85 82 84 80 77 73 72 73 70 66 60 71 77 89 97 76 68 78 59 37 27 35 21 22 31 28 22 17
161 171 180 198 197 197 175 171 184 188 198 178 187 195 176 192 182 201 203 212 216 221 214 190 196 198 240 173 193 196 198 195 186 186 186 186 185 173 166 152 142 136 118 112 113 117 119 118 115 117 120 113 104 100 96 100 99 98 100 99 89 82 77 74 68 61 62 69 72 67 70 72 68 64 68 62 66 54 53 36 40 47 37 37 40 20
171 175 180 172 204 191 179 181 176 193 185 202 195 193 192 178 186 201 195 200 213 225 195 186 184 196 227 203 187 191 195 192 191 190 187 183 175 160 143 132 140 134 124 127 128 128 128 124 123 123 120 118 115 111 113 113 112 110 105 95 95 87 82 75 71 69 69 73 78 81 78 77 72 73 75 73 67 60 62 54 43 38 49 41 38 30
164 173 175 172 188 199 192 188 166 187 191 199 198 192 193 190 186 202 196 201 206 146 104 204 184 230 187 147 188 186 179 190 187 185 184 180 159 138 138 143 145 139 134 137 140 145 142 137 138 138 139 130 127 128 125 120 115 110 96 96 96 91 86 81 76 76 77 75 75 75 76 78 80 76 72 70 64 56 52 52 52 52 54 57 46 40
160 170 190 177 189 184 201 205 184 188 183 200 204 200 204 206 188 193 202 194 201 173 155 149 174 210 204 133 64 19 160 177 185 174 170 126 120 134 145 149 146 141 144 153 159 155 141 138 135 133 134 133 133 135 133 126 115 108 104 99 96 90 83 80 78 79 81 79 72 72 71 69 74 73 70 62 56 50 54 57 61 58 59 60 53 41
174 182 160 182 174 175 196 202 181 184 185 200 204 209 213 216 183 213 201 225 191 152 159 174 200 331 180 108 115 211 213 192 181 167 131 128 138 142 153 155 154 153 155 159 156 151 138 131 128 130 131 131 134 135 128 120 113 108 105 101 95 95 93 89 88 84 81 76 71 67 69 69 69 73 71 69 63 63 62 65 67 66 60 58 58 51
168 177 146 174 174 181 191 194 187 192 189 184 204 206 209 217 213 111 124 64 41 142 201 164 180 130 118 171 138 195 183 181 162 155 131 140 147 154 159 163 160 158 153 153 153 142 132 124 118 122 123 130 135 135 129 122 120 114 108 101 95 89 91 90 87 86 81 78 72 66 66 68 71 71 76 76 71 68 67 67 66 65 64 64 60 60
172 134 160 162 176 184 196 188 193 199 222 158 209 199 127 18 336 199 188 126 212 204 182 168 191 175 180 178 161 163 179 162 159 152 145 149 157 160 164 164 161 158 153 148 138 131 130 129 130 128 135 141 139 134 128 124 118 113 110 107 103 100 94 87 82 77 76 77 73 69 67 67 68 70 71 73 72 66 67 66 65 64 65 61 62 62
158 130 163 178 175 175 187 185 202 211 225 223 206 177 189 186 211 201 238 181 197 209 193 197 207 201 200 161 156 173 178 173 165 159 156 158 165 165 165 162 156 150 149 145 147 142 135 133 138 141 143 139 132 132 128 126 122 117 107 101 99 96 92 89 86 83 78 76 76 72 69 69 71 72 72 73 68 65 68 69 67 65 64 65 62 61
211 151 149 178 179 163 180 194 199 195 195 252 241 212 207 237 222 197 207 218 195 206 197 186 179 212 207 164 173 176 186 181 170 166 169 169 168 164 161 158 155 154 151 150 150 141 136 135 136 140 141 139 135 133 131 126 120 111 106 103 101 100 96 93 88 84 81 76 78 77 74 70 71 70 71 71 71 69 68 67 70 70 66 63 64 62
182 198 158 168 179 162 194 196 200 188 184 196 216 208 193 219 323 260 187 217 210 209 204 178 190 219 198 153 176 185 186 183 181 180 174 171 170 166 161 157 157 155 153 152 149 148 144 140 138 140 143 140 136 132 128 125 118 110 107 105 104 102 98 89 81 81 80 82 80 80 78 77 76 76 77 76 73 74 73 73 72 72 72 68 64 63
184 191 164 160 175 190 196 188 208 196 196 197 204 209 202 194 196 198 204 188 231 230 215 196 214 141 112 155 184 190 184 183 184 178 171 169 168 161 159 159 158 154 152 148 148 148 142 142 143 143 146 145 142 135 132 126 119 113 108 107 106 102 100 95 88 84 83 81 81 80 82 81 80 79 78 79 77 74 71 68 67 68 72 71 65 61
206 187 158 173 183 186 196 178 209 211 199 208 205 211 206 208 212 210 215 185 202 225 343 233 234 113 96 3 203 189 170 172 174 174 170 166 162 160 158 157 155 154 152 151 151 150 148 147 150 150 151 152 143 136 134 130 125 118 114 108 102 99 91 86 88 85 85 86 86 85 83 82 82 82 80 78 76 73 72 71 70 69 71 71 70 63
342 193 157 175 170 189 139 175 204 229 214 209 214 220 208 210 203 217 220 205 200 180 196 180 234 112 114 178 184 191 164 169 161 168 167 160 154 154 155 156 156 155 155 148 144 149 149 147 150 150 152 148 143 140 138 133 128 121 114 110 108 101 100 99 94 90 89 87 85 84 84 83 83 79 80 80 75 73 71 71 73 71 69 68 67 69
182 190 180 156 168 175 192 191 210 212 220 218 210 209 220 214 205 217 239 224 209 212 204 207 220 166 110 163 173 183 165 165 159 164 162 152 153 152 152 155 156 153 152 151 152 151 151 152 155 154 150 149 146 143 142 139 130 119 112 111 108 108 106 101 97 93 91 89 86 83 84 83 82 83 82 79 75 75 75 73 71 66 67 69 66 61
220 167 196 177 180 180 189 195 196 192 203 209 221 208 211 213 205 201 209 193 225 209 206 212 206 79 92 163 168 176 170 163 160 157 157 150 151 152 153 156 156 154 153 153 152 154 156 156 155 153 153 151 149 148 144 138 125 115 113 109 107 109 106 102 102 101 98 92 89 87 86 87 87 87 86 82 79 74 72 71 70 70 64 60 65 63
219 180 207 204 199 202 202 203 190 186 185 208 205 217 207 212 214 213 217 228 224 206 227 207 226 132 149 172 172 172 176 167 159 161 159 156 154 153 153 153 150 154 153 155 156 155 152 153 153 151 151 151 151 149 144 132 119 115 116 117 114 110 108 108 108 106 105 101 97 95 92 91 88 87 83 79 76 76 73 68 65 64 63 59 59 59
195 190 203 245 292 237 207 174 156 188 196 201 202 207 210 206 213 213 214 226 215 228 221 210 192 165 172 175 175 172 178 172 167 166 158 160 160 157 155 152 154 158 157 157 155 153 151 147 145 149 150 150 151 147 136 125 119 118 119 118 116 115 116 118 118 116 112 109 104 102 99 93 91 85 81 80 77 74 71 70 68 65 64 61 58 58
190 192 177 212 162 80 68 108 167 197 207 200 207 207 208 207 210 213 214 222 217 211 230 161 177 209 179 181 181 182 181 181 178 173 167 157 152 149 150 153 157 160 161 157 150 145 141 144 151 151 152 153 152 146 134 124 119 116 122 120 119 122 124 125 123 120 116 114 110 104 103 101 93 91 87 83 80 76 73 69 65 65 65 63 65 57
209 194 172 196 161 153 94 125 167 207 207 215 212 212 212 211 213 214 213 215 212 209 238 150 194 205 191 181 182 176 174 174 172 167 161 162 160 155 154 157 157 156 155 151 146 150 153 150 152 154 155 156 153 145 134 125 121 122 125 126 125 127 127 129 124 119 118 115 112 111 108 104 101 95 91 86 83 79 76 73 70 68 64 63 61 61
240 130 143 176 180 163 133 130 190 210 211 215 217 218 215 212 213 214 218 218 216 226 229 206 197 207 84 140 155 151 160 149 162 167 169 167 164 161 160 160 157 158 157 155 154 154 151 152 153 156 159 158 151 144 133 122 120 123 122 128 133 133 132 128 123 119 118 113 112 110 108 104 101 99 93 88 83 82 79 76 75 69 68 64 60 60
231 128 185 183 207 178 179 192 188 205 214 222 216 211 211 212 215 210 215 212 211 211 213 226 227 225 133 144 146 153 161 170 174 171 168 170 169 166 165 163 166 163 157 157 159 158 157 157 159 160 160 156 150 139 127 123 127 129 127 127 128 127 127 126 125 122 120 117 114 110 105 100 96 93 90 87 81 78 79 78 74 71 66 64 64 61
196 175 184 187 207 182 155 184 178 189 194 214 225 215 210 212 222 213 201 188 209 217 215 210 223 232 159 151 152 166 173 178 178 176 173 170 171 170 168 168 168 164 161 162 162 162 163 161 161 158 156 154 140 130 129 129 129 126 125 122 121 123 125 125 124 121 116 112 108 104 99 99 96 93 91 89 90 86 79 73 70 69 67 65 64 64
185 204 190 185 209 175 160 164 174 198 206 213 57 10 220 209 193 194 199 202 208 208 230 230 238 172 143 161 168 167 179 188 189 186 176 165 166 168 167 166 167 169 167 166 164 165 158 160 159 157 154 136 129 128 125 123 121 119 120 121 124 124 122 121 118 116 114 113 113 113 113 108 105 101 96 91 83 78 74 69 68 68 66 68 67 65
184 192 206 176 213 185 162 180 202 218 208 47 143 71 47 56 188 220 221 219 208 202 180 178 160 165 172 178 181 175 175 174 181 181 180 170 166 167 166 165 165 165 163 160 160 156 158 160 157 155 138 132 133 129 126 124 125 125 123 124 123 124 124 123 122 122 123 120 119 117 113 109 105 100 95 89 83 77 71 68 68 64 62 63 59 59
182 194 179 190 220 145 180 198 212 202 62 158 86 150 90 61 173 163 246 217 206 203 204 214 200 186 169 154 151 154 165 169 170 177 180 177 175 170 167 167 164 159 158 159 157 159 158 155 157 147 135 131 136 134 132 129 131 129 125 129 128 129 129 129 128 126 125 120 114 109 108 108 106 101 95 89 82 77 73 69 66 67 65 63 64 61
187 190 186 184 202 201 204 201 202 44 196 149 165 191 185 173 176 183 207 218 200 200 195 194 164 157 148 149 140 149 155 153 162 177 185 179 177 175 172 164 157 159 160 161 158 155 149 146 144 137 134 141 141 137 135 135 135 132 131 132 132 132 132 131 129 126 122 118 116 114 113 108 104 100 95 89 85 79 74 72 68 64 62 65 62 61
202 201 185 203 182 245 205 203 200 203 229 200 199 123 177 18 179 181 293 208 172 186 189 180 165 156 150 145 147 153 150 153 175 191 189 184 181 178 172 160 160 161 158 150 154 143 140 140 136 138 142 144 140 135 135 137 137 135 134 134 136 135 134 133 129 127 123 119 119 115 111 108 103 101 96 89 84 80 76 73 70 67 59 60 62 62
210 233 203 206 177 197 223 224 208 219 223 82 144 137 163 133 185 206 233 228 174 178 180 179 166 162 159 155 152 154 158 177 202 194 185 182 179 178 170 157 153 154 151 157 152 140 142 141 142 143 141 140 134 135 137 138 139 138 136 139 139 137 135 132 130 129 126 123 120 115 110 105 102 99 96 92 88 82 78 71 67 66 65 66 67 65
203 207 211 222 207 197 216 219 220 218 201 109 122 139 152 146 139 213 224 209 148 174 173 176 170 165 163 160 159 171 178 196 206 187 177 178 176 174 166 154 150 150 152 153 140 141 141 140 140 142 141 140 137 140 142 143 143 139 138 139 138 136 134 133 131 126 124 123 119 115 110 106 103 100 97 96 91 84 78 73 71 66 65 61 59 61
195 204 209 221 214 194 212 224 237 208 114 102 115 136 142 162 207 218 222 82 135 168 178 181 178 170 160 162 171 186 202 46 14 135 157 168 169 164 158 148 151 151 156 146 133 134 139 143 146 145 143 140 142 145 147 144 141 141 139 139 138 136 133 131 131 131 128 127 125 121 115 109 105 104 100 96 92 86 78 72 69 68 69 68 60 57
192 201 204 222 221 213 202 226 225 224 80 112 126 141 152 162 195 221 72 11 183 169 176 185 179 173 169 171 175 187 162 94 127 140 155 163 159 157 160 149 151 156 153 140 138 142 143 145 145 143 142 144 147 148 148 145 143 140 141 142 137 134 134 135 133 132 135 133 126 120 116 113 108 105 101 96 95 92 84 76 69 65 64 62 61 58
181 187 195 199 212 226 205 219 216 221 155 162 130 137 241 233 54 52 88 73 149 156 165 170 181 164 170 164 173 154 136 152 150 150 155 149 151 157 161 160 155 153 140 134 142 146 146 145 144 144 144 148 149 150 149 147 143 142 143 138 136 138 139 136 138 140 136 130 127 124 120 119 119 114 106 97 91 87 86 85 80 73 64 62 65 58
118 220 202 201 204 211 201 215 222 27 101 158 162 179 185 49 37 26 346 124 162 161 165 166 172 168 168 171 162 146 159 153 154 149 148 149 156 156 158 154 150 137 133 140 145 148 148 143 142 144 149 149 151 150 149 148 144 144 140 137 140 138 138 142 141 137 133 132 131 130 129 126 121 116 111 104 99 90 85 78 78 69 60 53 48 52
143 260 353 249 155 229 241 169 66 52 140 150 50 54 22 67 16 17 347 87 154 158 173 171 167 164 173 172 167 169 158 162 154 154 152 157 158 160 159 153 142 140 142 144 147 148 148 145 145 147 150 151 151 150 150 150 145 142 140 139 141 142 144 143 141 139 139 139 136 135 133 129 119 114 107 112 103 103 99 88 73 72 64 60 54 46
46 15 293 278 99 77 116 76 351 123 183 177 154 29 24 34 87 335 348 124 112 157 173 178 163 171 167 157 163 170 167 161 158 158 162 162 160 158 152 138 132 137 143 145 148 152 146 143 144 148 150 151 153 151 153 149 146 143 140 142 144 146 144 145 144 145 145 138 137 137 135 127 122 114 109 104 106 97 82 74 68 60 57 57 52 48
116 184 207 234 84 193 206 152 186 89 136 183 191 150 40 205 44 360 17 14 106 151 170 166 170 171 162 168 177 174 170 164 159 162 161 163 164 161 148 143 143 144 145 148 150 148 146 146 149 152 153 152 154 153 152 149 147 143 144 146 148 148 148 148 147 145 141 140 139 140 132 140 134 130 130 134 118 106 100 89 88 74 57 52 48 51
164 175 245 223 193 223 61 97 107 130 223 210 215 204 208 146 137 153 283 36 132 150 157 157 170 161 156 173 180 172 168 165 161 163 166 166 165 160 149 148 146 142 144 144 147 148 146 149 151 153 153 151 153 153 152 152 149 148 149 151 151 151 150 149 150 149 147 146 141 142 141 126 45 238 125 126 132 127 116 97 76 67 50 39 28 24
78 165 236 170 221 153 110 178 143 191 216 210 207 223 217 140 155 153 181 171 161 155 152 154 164 155 171 175 172 172 171 176 168 164 163 165 166 158 150 150 148 142 138 140 145 146 147 148 148 151 151 150 152 153 154 155 152 153 154 155 153 153 153 151 151 151 148 151 148 142 141 141 163 138 124 124 108 80 53 49 48 83 89 52 36 28
187 220 133 206 228 227 250 149 158 218 212 178 197 204 202 190 203 169 170 180 174 164 159 158 156 164 167 168 174 175 173 167 162 163 164 167 165 153 148 146 145 141 142 141 139 137 145 150 150 152 151 149 153 156 158 157 156 156 158 155 154 155 154 153 157 154 154 157 152 147 158 153 148 141 140 138 127 121 103 56 38 8 20 93 90 54
238 226 206 233 246 216 73 62 293 319 343 55 53 164 184 173 189 196 193 187 182 173 168 160 156 162 168 174 177 174 165 167 168 167 165 167 162 152 150 147 147 148 147 145 144 149 151 151 150 147 145 154 165 162 161 160 158 158 158 156 155 157 156 159 159 156 157 160 161 158 164 157 154 155 140 129 136 137 139 141 134 97 60 45 95 75